Regional Weather Roundup
Issued by NWS Cleveland, OH

Home | Current Version | Previous Version | Text Only | Print | Product List | Glossary Off
Versions: 1 2 3 4 5 6 7 8 9 10 11 12 13 14 15 16 17 18 19 20 21 22 23 24 25 26 27 28 29 30 31 32 33 34 35 36 37 38 39 40 41 42 43 44 45 46 47 48 49 50

000
ASUS41 KCLE 281700
RWRCLE
OHIO REGIONAL WEATHER ROUNDUP
NATIONAL WEATHER SERVICE WILMINGTON, OH
100 PM EDT FRI JUL 28 2017

NOTE: "FAIR" INDICATES FEW OR NO CLOUDS BELOW 12,000 FEET WITH NO
SIGNIFICANT WEATHER AND/OR OBSTRUCTIONS TO VISIBILITY.

OHZ001>008-015>018-024>027-034-035-043-044-281800-
   NORTHWEST OHIO

CITY           SKY/WX    TMP DP  RH WIND       PRES   REMARKS
DEFIANCE       PTSUNNY   72  63  73 N7        29.93F
FINDLAY        PTSUNNY   77  66  68 N14       29.89F
TOLEDO EXPRESS CLOUDY    76  66  71 NE10      29.92S
TOLEDO EXEC    CLOUDY    73  66  78 NE13G20   29.93R
LIMA           FAIR      74  68  81 N7        29.91F
$$

OHZ009>014-019>023-028>033-038-089-281800-
   NORTHEAST OHIO

CITY           SKY/WX    TMP DP  RH WIND       PRES   REMARKS
CLE-HOPKINS    PTSUNNY   80  69  69 NE17      29.89F
CLE-LAKEFRONT  FAIR      76  69  79 NE18G28   29.87S
CUY CO. ARPT   PTSUNNY   77  70  78 E14       29.90S
LORAIN-ELYRIA  PTSUNNY   76  64  66 NE14G20   29.89F
ASHTABULA      PTSUNNY   73  67  81 VRB6G18   29.90S
AKRON-CANTON   CLOUDY    77  67  71 N9        29.87S
WOOSTER        NOT AVBL
MANSFIELD      FAIR      76  67  73 N9        29.89F
YOUNGSTOWN     CLOUDY    76  67  73 N10       29.87F
$$

OHZ042-051>053-060>062-070>072-077>081-281800-
  SOUTHWEST OHIO

CITY           SKY/WX    TMP DP  RH WIND       PRES   REMARKS
CINC-COVINGTON CLOUDY    77  73  87 NE8       29.84F
CINC-LUNKEN    NOT AVBL
HAMILTON       FAIR      81  71  71 NE9       29.85F
DAYTON         NOT AVBL
WRIGHT-PAT AFB PTSUNNY   80  65  59 N16       29.86F
DAYTON GENERAL PTSUNNY   80  65  59 NE7       29.86S
WILMINGTON     CLOUDY    76  72  87 N9        29.85F
$$

OHZ036-037-039>041-045>050-054>059-063>069-073>076-082>088-281800-
  CENTRAL AND SOUTHEAST OHIO

CITY           SKY/WX    TMP DP  RH WIND       PRES   REMARKS
COLUMBUS       PTSUNNY   81  70  69 N13       29.83F
OSU AIRPORT    PTSUNNY   80  70  71 N8        29.85F
BOLTON FIELD   PTSUNNY   81  72  74 NW10      29.85F
RICKENBACK AFB NOT AVBL
NEWARK         CLOUDY    79  69  71 N5        29.83F
MARION         PTSUNNY   77  67  71 N14       29.89S
LANCASTER      CLOUDY    76  70  82 CALM      29.84F
ZANESVILLE     CLOUDY    79  69  71 N7        29.82F
NEW PHILLY     PTSUNNY   77  71  82 N6        29.85F
$$



USA.gov is the U.S. government's official web portal to all federal, state and local government web resources and services.